Hourly Weather Saurimo

Today, 5 July, Sunday

Time Temperature Precipitation Wind Pressure Humidity
00:00 +15°C° 0 mm 2 mps 670 mmHg 44%
01:00 +14°C° 0 mm 2 mps 670 mmHg 45%
02:00 +14°C° 0 mm 2 mps 670 mmHg 44%
03:00 +14°C° 0 mm 2 mps 670 mmHg 44%
04:00 +14°C° 0 mm 2 mps 670 mmHg 44%
05:00 +13°C° 0 mm 3 mps 670 mmHg 44%
06:00 +14°C° 0 mm 3 mps 671 mmHg 44%
07:00 +16°C° 0 mm 3 mps 671 mmHg 44%
08:00 +19°C° 0 mm 4 mps 672 mmHg 38%
09:00 +22°C° 0 mm 4 mps 673 mmHg 32%
10:00 +27°C° 0 mm 4 mps 673 mmHg 27%
11:00 +28°C° 0 mm 4 mps 673 mmHg 24%
12:00 +29°C° 0 mm 3 mps 672 mmHg 21%
13:00 +30°C° 0 mm 3 mps 672 mmHg 18%
14:00 +30°C° 0 mm 3 mps 672 mmHg 18%
15:00 +30°C° 0 mm 2 mps 671 mmHg 17%
16:00 +30°C° 0 mm 2 mps 671 mmHg 16%
17:00 +26°C° 0 mm 2 mps 670 mmHg 21%
18:00 +23°C° 0 mm 1 mps 670 mmHg 25%
19:00 +20°C° 0 mm 1 mps 670 mmHg 29%
20:00 +19°C° 0 mm 1 mps 670 mmHg 31%
21:00 +18°C° 0 mm 1 mps 670 mmHg 32%
22:00 +16°C° 0 mm 2 mps 671 mmHg 33%
23:00 +16°C° 0 mm 2 mps 670 mmHg 34%

Tomorrow, 6 July, Monday

Time Temperature Precipitation Wind Pressure Humidity
00:00 +15°C° 0 mm 2 mps 670 mmHg 35%
01:00 +14°C° 0 mm 2 mps 670 mmHg 36%
02:00 +14°C° 0 mm 2 mps 669 mmHg 36%
03:00 +12°C° 0 mm 3 mps 669 mmHg 36%
04:00 +12°C° 0 mm 3 mps 669 mmHg 37%
05:00 +12°C° 0 mm 3 mps 670 mmHg 35%
06:00 +13°C° 0 mm 3 mps 671 mmHg 33%
07:00 +14°C° 0 mm 4 mps 671 mmHg 32%
08:00 +18°C° 0 mm 4 mps 672 mmHg 28%
09:00 +22°C° 0 mm 4 mps 673 mmHg 24%
10:00 +26°C° 0 mm 4 mps 673 mmHg 20%
11:00 +28°C° 0 mm 4 mps 673 mmHg 19%
12:00 +29°C° 0 mm 3 mps 672 mmHg 17%
13:00 +31°C° 0 mm 3 mps 672 mmHg 15%
14:00 +30°C° 0 mm 3 mps 671 mmHg 15%
15:00 +30°C° 0 mm 2 mps 671 mmHg 15%
16:00 +30°C° 0 mm 2 mps 670 mmHg 15%
17:00 +27°C° 0 mm 2 mps 670 mmHg 19%
18:00 +24°C° 0 mm 2 mps 670 mmHg 23%
19:00 +20°C° 0 mm 2 mps 669 mmHg 27%
20:00 +19°C° 0 mm 2 mps 670 mmHg 28%
21:00 +18°C° 0 mm 2 mps 670 mmHg 29%
22:00 +17°C° 0 mm 2 mps 670 mmHg 30%
23:00 +16°C° 0 mm 2 mps 670 mmHg 31%

Day after tomorrow, 7 July, Tuesday

Time Temperature Precipitation Wind Pressure Humidity
00:00 +15°C° 0 mm 2 mps 670 mmHg 31%
01:00 +15°C° 0 mm 2 mps 669 mmHg 32%
02:00 +14°C° 0 mm 2 mps 669 mmHg 32%
03:00 +14°C° 0 mm 2 mps 669 mmHg 33%
04:00 +13°C° 0 mm 2 mps 669 mmHg 34%
05:00 +13°C° 0 mm 3 mps 669 mmHg 33%
06:00 +13°C° 0 mm 3 mps 670 mmHg 33%
07:00 +14°C° 0 mm 3 mps 670 mmHg 32%
08:00 +19°C° 0 mm 3 mps 671 mmHg 28%
09:00 +23°C° 0 mm 4 mps 672 mmHg 23%
10:00 +27°C° 0 mm 4 mps 672 mmHg 19%
11:00 +29°C° 0 mm 3 mps 672 mmHg 17%
12:00 +31°C° 0 mm 3 mps 671 mmHg 15%
13:00 +32°C° 0 mm 2 mps 671 mmHg 14%
14:00 +32°C° 0 mm 2 mps 670 mmHg 14%
15:00 +32°C° 0 mm 2 mps 670 mmHg 14%
16:00 +32°C° 0 mm 1 mps 669 mmHg 14%
17:00 +28°C° 0 mm 2 mps 669 mmHg 17%
18:00 +25°C° 0 mm 2 mps 669 mmHg 21%
19:00 +21°C° 0 mm 2 mps 669 mmHg 25%
20:00 +20°C° 0 mm 2 mps 669 mmHg 25%
21:00 +19°C° 0 mm 2 mps 669 mmHg 26%
22:00 +18°C° 0 mm 2 mps 669 mmHg 26%
23:00 +17°C° 0 mm 2 mps 669 mmHg 27%

8 July, Wednesday

Time Temperature Precipitation Wind Pressure Humidity
00:00 +16°C° 0 mm 2 mps 669 mmHg 28%
01:00 +15°C° 0 mm 2 mps 669 mmHg 29%
02:00 +15°C° 0 mm 2 mps 669 mmHg 29%
03:00 +15°C° 0 mm 2 mps 669 mmHg 30%
04:00 +14°C° 0 mm 2 mps 669 mmHg 31%
05:00 +14°C° 0 mm 3 mps 669 mmHg 31%
06:00 +14°C° 0 mm 3 mps 670 mmHg 31%
07:00 +16°C° 0 mm 3 mps 670 mmHg 32%
08:00 +20°C° 0 mm 3 mps 671 mmHg 27%
09:00 +25°C° 0 mm 3 mps 672 mmHg 23%
10:00 +28°C° 0 mm 3 mps 673 mmHg 19%
11:00 +31°C° 0 mm 2 mps 672 mmHg 17%
12:00 +34°C° 0 mm 2 mps 672 mmHg 15%
13:00 +35°C° 0 mm 1 mps 672 mmHg 13%
14:00 +34°C° 0 mm 1 mps 671 mmHg 13%
15:00 +34°C° 0 mm 1 mps 671 mmHg 14%
16:00 +31°C° 0 mm 0 mps 670 mmHg 14%
17:00 +30°C° 0 mm 1 mps 670 mmHg 18%
18:00 +26°C° 0 mm 1 mps 670 mmHg 21%
19:00 +23°C° 0 mm 1 mps 669 mmHg 25%
20:00 +22°C° 0 mm 1 mps 670 mmHg 27%
21:00 +21°C° 0 mm 1 mps 670 mmHg 28%
22:00 +21°C° 0 mm 1 mps 670 mmHg 29%
23:00 +20°C° 0 mm 1 mps 670 mmHg 31%

9 July, Thursday

Time Temperature Precipitation Wind Pressure Humidity
00:00 +19°C° 0 mm 1 mps 669 mmHg 32%
01:00 +19°C° 0 mm 1 mps 669 mmHg 33%
02:00 +18°C° 0 mm 1 mps 669 mmHg 34%
03:00 +17°C° 0 mm 2 mps 669 mmHg 35%
04:00 +16°C° 0 mm 2 mps 669 mmHg 36%
05:00 +17°C° 0 mm 2 mps 670 mmHg 35%
06:00 +17°C° 0 mm 2 mps 670 mmHg 35%
07:00 +17°C° 0 mm 2 mps 671 mmHg 34%
08:00 +21°C° 0 mm 2 mps 671 mmHg 28%
09:00 +26°C° 0 mm 2 mps 672 mmHg 22%
10:00 +30°C° 0 mm 2 mps 673 mmHg 16%
11:00 +32°C° 0 mm 2 mps 672 mmHg 15%
12:00 +35°C° 0 mm 2 mps 672 mmHg 14%
13:00 +36°C° 0 mm 1 mps 672 mmHg 13%
14:00 +36°C° 0 mm 1 mps 671 mmHg 13%
15:00 +35°C° 0 mm 1 mps 671 mmHg 13%
16:00 +34°C° 0 mm 1 mps 670 mmHg 13%
17:00 +31°C° 0 mm 1 mps 670 mmHg 16%
18:00 +28°C° 0 mm 1 mps 670 mmHg 19%
19:00 +25°C° 0 mm 1 mps 669 mmHg 23%
20:00 +24°C° 0 mm 1 mps 670 mmHg 24%
21:00 +23°C° 0 mm 1 mps 670 mmHg 26%
22:00 +21°C° 0 mm 2 mps 670 mmHg 27%
23:00 +21°C° 0 mm 1 mps 669 mmHg 29%

10 July, Friday

Time Temperature Precipitation Wind Pressure Humidity
00:00 +20°C° 0 mm 1 mps 669 mmHg 30%
01:00 +19°C° 0 mm 1 mps 669 mmHg 32%
02:00 +19°C° 0 mm 1 mps 669 mmHg 33%
03:00 +18°C° 0 mm 1 mps 669 mmHg 34%
04:00 +17°C° 0 mm 2 mps 669 mmHg 35%
05:00 +17°C° 0 mm 2 mps 669 mmHg 34%
06:00 +19°C° 0 mm 1 mps 670 mmHg 34%
07:00 +19°C° 0 mm 1 mps 670 mmHg 33%
08:00 +23°C° 0 mm 2 mps 671 mmHg 29%
09:00 +27°C° 0 mm 2 mps 672 mmHg 24%
10:00 +31°C° 0 mm 2 mps 672 mmHg 19%
11:00 +34°C° 0 mm 2 mps 672 mmHg 17%
12:00 +36°C° 0 mm 2 mps 672 mmHg 16%
13:00 +37°C° 0 mm 2 mps 671 mmHg 14%
14:00 +37°C° 0 mm 2 mps 671 mmHg 14%
15:00 +35°C° 0 mm 1 mps 670 mmHg 15%
16:00 +35°C° 0 mm 1 mps 670 mmHg 15%
17:00 +32°C° 0 mm 1 mps 669 mmHg 19%
18:00 +28°C° 0 mm 1 mps 669 mmHg 22%
19:00 +25°C° 0 mm 1 mps 669 mmHg 26%
20:00 +25°C° 0 mm 1 mps 669 mmHg 27%
21:00 +24°C° 0 mm 1 mps 669 mmHg 29%
22:00 +23°C° 0 mm 1 mps 669 mmHg 30%
23:00 +22°C° 0 mm 1 mps 669 mmHg 32%
Show more